Total_Precipitation_Accumulation
10.10 6.65 6.02 5.17 5.64 3.55 1.24 0.53 0.60 0.55 0.24 0.07 0.03 0.00 0.00 0.00 0.00 0.00 0.00 0.00 0.00 0.00 0.00 0.00 0.00 0.00 0.00 0.00 0.00 0.00 0.00 0.01
6.70 5.20 4.53 4.25 4.34 4.92 3.22 1.85 0.85 0.74 0.30 0.14 0.05 0.00 0.00 0.00 0.00 0.00 0.00 0.00 0.00 0.00 0.00 0.00 0.00 0.00 0.00 0.00 0.00 0.00 0.00 0.00
3.46 2.30 1.49 1.76 1.89 2.41 2.90 2.77 2.05 1.36 0.73 0.17 0.08 0.04 0.00 0.00 0.00 0.00 0.00 0.00 0.00 0.00 0.00 0.00 0.00 0.00 0.00 0.00 0.00 0.00 0.00 0.00
1.27 0.72 0.31 0.29 0.43 0.66 1.18 1.92 2.23 1.73 1.09 0.26 0.09 0.03 0.00 0.00 0.00 0.00 0.00 0.00 0.00 0.00 0.00 0.00 0.00 0.00 0.00 0.00 0.00 0.00 0.00 0.00
0.74 0.50 0.27 0.19 0.16 0.21 0.35 0.96 1.71 1.61 0.99 0.25 0.04 0.01 0.01 0.02 0.00 0.00 0.00 0.00 0.00 0.00 0.00 0.00 0.00 0.00 0.00 0.00 0.00 0.00 0.00 0.00
0.31 0.34 0.34 0.46 0.30 0.21 0.21 0.58 1.07 0.96 0.41 0.10 0.01 0.02 0.04 0.00 0.00 0.00 0.00 0.00 0.00 0.00 0.00 0.00 0.00 0.00 0.00 0.00 0.00 0.00 0.00 0.00
0.36 0.16 0.24 0.22 0.22 0.23 0.20 0.49 0.46 0.41 0.24 0.05 0.00 0.00 0.00 0.00 0.00 0.00 0.00 0.00 0.00 0.00 0.00 0.00 0.00 0.00 0.00 0.00 0.00 0.00 0.00 0.00
0.45 0.39 0.34 0.29 0.21 0.28 0.26 0.39 0.43 0.30 0.34 0.15 0.04 0.02 0.01 0.00 0.00 0.00 0.00 0.00 0.00 0.00 0.00 0.00 0.00 0.00 0.00 0.00 0.00 0.00 0.00 0.00
0.60 1.00 0.49 0.33 0.26 0.30 0.30 0.21 0.28 0.31 0.29 0.21 0.07 0.02 0.04 0.02 0.00 0.00 0.00 0.00 0.00 0.00 0.00 0.00 0.00 0.00 0.00 0.00 0.00 0.00 0.00 0.00
0.65 1.25 0.92 0.46 0.24 0.26 0.26 0.27 0.29 0.33 0.24 0.17 0.15 0.11 0.09 0.04 0.01 0.00 0.00 0.00 0.00 0.00 0.00 0.00 0.00 0.00 0.00 0.00 0.00 0.00 0.00 0.00
0.48 0.78 1.04 0.93 0.69 0.61 0.38 0.21 0.31 0.35 0.22 0.16 0.09 0.08 0.08 0.04 0.02 0.00 0.00 0.00 0.00 0.00 0.00 0.00 0.00 0.00 0.00 0.00 0.00 0.00 0.00 0.00
0.56 0.70 1.18 1.54 0.80 0.31 0.23 0.30 0.35 0.36 0.18 0.11 0.10 0.06 0.08 0.02 0.01 0.01 0.00 0.00 0.00 0.00 0.00 0.00 0.00 0.00 0.00 0.00 0.00 0.00 0.00 0.00
0.63 0.99 0.95 0.46 0.21 0.10 0.15 0.23 0.39 0.46 0.31 0.16 0.15 0.08 0.13 0.11 0.07 0.10 0.01 0.01 0.00 0.01 0.01 0.00 0.00 0.00 0.00 0.00 0.00 0.00 0.00 0.00
0.32 0.14 0.12 0.03 0.04 0.06 0.09 0.14 0.24 0.33 0.30 0.14 0.23 0.16 0.12 0.08 0.13 0.27 0.14 0.10 0.02 0.02 0.01 0.01 0.01 0.00 0.00 0.00 0.00 0.00 0.00 0.00
0.06 0.08 0.13 0.04 0.02 0.02 0.05 0.21 0.27 0.21 0.32 0.21 0.17 0.16 0.21 0.15 0.19 0.23 0.16 0.09 0.05 0.02 0.01 0.00 0.00 0.01 0.01 0.01 0.01 0.01 0.00 0.00
0.06 0.11 0.14 0.04 0.01 0.00 0.02 0.11 0.16 0.21 0.20 0.16 0.11 0.10 0.13 0.13 0.15 0.17 0.21 0.16 0.13 0.08 0.02 0.02 0.05 0.09 0.11 0.09 0.08 0.05 0.07 0.06
0.08 0.11 0.15 0.08 0.01 0.06 0.12 0.14 0.16 0.20 0.16 0.12 0.09 0.08 0.07 0.06 0.05 0.05 0.04 0.06 0.08 0.11 0.12 0.17 0.24 0.27 0.28 0.20 0.16 0.16 0.17 0.19
0.10 0.12 0.19 0.09 0.06 0.07 0.13 0.17 0.14 0.10 0.08 0.09 0.06 0.07 0.08 0.07 0.05 0.05 0.04 0.07 0.08 0.18 0.39 0.37 0.32 0.30 0.31 0.27 0.21 0.21 0.19 0.20
0.08 0.07 0.09 0.09 0.12 0.07 0.05 0.12 0.16 0.16 0.12 0.17 0.12 0.07 0.06 0.15 0.22 0.19 0.13 0.16 0.28 0.26 0.23 0.26 0.31 0.33 0.36 0.39 0.33 0.22 0.18 0.18
0.12 0.11 0.11 0.07 0.11 0.16 0.20 0.25 0.31 0.37 0.36 0.31 0.19 0.21 0.24 0.39 0.52 0.55 0.47 0.35 0.33 0.38 0.41 0.44 0.44 0.38 0.35 0.34 0.32 0.32 0.35 0.37